| time (UTC) | temp F | wind direction | speed MPH | gust MPH | rain 1hr in | rain 24hr in | rain mn in | humidity % | barometer mb |
| 20260506155122 | 60 | 334 | 9.0 | 9.0 | 0.00 | 0.00 | 0.00 | 79 | 1020.6 |
| 20260506153218 | 59 | 338 | 5.0 | 9.0 | 0.00 | 0.00 | 0.00 | 81 | 1020.7 |
| 20260506152715 | 59 | 339 | 6.0 | 8.0 | 0.00 | 0.00 | 0.00 | 81 | 1020.8 |
| 20260506152213 | 59 | 316 | 6.0 | 9.0 | 0.00 | 0.00 | 0.00 | 83 | 1020.7 |
| 20260506151712 | 59 | 305 | 7.0 | 11.0 | 0.00 | 0.00 | 0.00 | 83 | 1020.6 |
| 20260506151208 | 58 | 295 | 4.0 | 6.0 | 0.00 | 0.00 | 0.00 | 86 | 1020.7 |
| 20260506150704 | 57 | 341 | 4.0 | 6.0 | 0.00 | 0.00 | 0.00 | 87 | 1020.9 |
| 20260506150201 | 57 | 331 | 3.0 | 7.0 | 0.00 | 0.00 | 0.00 | 87 | 1020.8 |
| 20260506145658 | 57 | 320 | 5.0 | 6.0 | 0.00 | 0.00 | 0.00 | 88 | 1020.8 |
| 20260506145155 | 56 | 310 | 3.0 | 5.0 | 0.00 | 0.00 | 0.00 | 89 | 1020.7 |
| 20260506144653 | 56 | 329 | 5.0 | 5.0 | 0.00 | 0.00 | 0.00 | 89 | 1020.8 |
| 20260506144149 | 56 | 335 | 5.0 | 6.0 | 0.00 | 0.00 | 0.00 | 89 | 1020.8 |
| 20260506143647 | 55 | 301 | 3.0 | 5.0 | 0.00 | 0.00 | 0.00 | 91 | 1020.9 |
| 20260506143144 | 55 | 292 | 2.0 | 5.0 | 0.00 | 0.00 | 0.00 | 92 | 1020.8 |
| 20260506142643 | 54 | 313 | 3.0 | 4.0 | 0.00 | 0.00 | 0.00 | 93 | 1020.8 |
| 20260506142140 | 54 | 260 | 3.0 | 4.0 | 0.00 | 0.00 | 0.00 | 94 | 1020.7 |
| 20260506141638 | 53 | 290 | 2.0 | 6.0 | 0.00 | 0.00 | 0.00 | 95 | 1020.6 |
| 20260506141136 | 53 | 300 | 3.0 | 5.0 | 0.00 | 0.00 | 0.00 | 96 | 1020.5 |
| 20260506140633 | 52 | 297 | 1.0 | 4.0 | 0.00 | 0.00 | 0.00 | 97 | 1020.5 |
| 20260506140130 | 51 | 281 | 2.0 | 5.0 | 0.00 | 0.00 | 0.00 | 97 | 1020.4 |
| 20260506135627 | 51 | 324 | 3.0 | 4.0 | 0.00 | 0.00 | 0.00 | 98 | 1020.4 |
| 20260506135123 | 51 | 299 | 3.0 | 4.0 | 0.00 | 0.00 | 0.00 | 98 | 1020.4 |
| 20260506134620 | 51 | 301 | 2.0 | 5.0 | 0.00 | 0.00 | 0.00 | 98 | 1020.2 |
| 20260506134116 | 50 | 277 | 1.0 | 3.0 | 0.00 | 0.00 | 0.00 | 98 | 1020.2 |
| 20260506133614 | 50 | 332 | 1.0 | 3.0 | 0.00 | 0.00 | 0.00 | 98 | 1020.3 |
| 20260506133110 | 50 | 358 | 0.0 | 2.0 | 0.00 | 0.00 | 0.00 | 98 | 1020.2 |
| 20260506132608 | 50 | 311 | 0.0 | 2.0 | 0.00 | 0.00 | 0.00 | 98 | 1020.0 |
| 20260506132104 | 49 | 318 | 3.0 | 4.0 | 0.02 | 0.00 | 0.00 | 98 | 1020.2 |
| 20260506131602 | 49 | 302 | 2.0 | 2.0 | 0.02 | 0.00 | 0.00 | 98 | 1020.2 |
| 20260506131058 | 49 | 283 | 0.0 | 2.0 | 0.00 | 0.00 | 0.00 | 98 | 1019.8 |
| 20260506130555 | 49 | 305 | 2.0 | 4.0 | 0.00 | 0.00 | 0.00 | 98 | 1019.9 |
| 20260506130053 | 49 | 312 | 2.0 | 3.0 | 0.00 | 0.00 | 0.00 | 98 | 1019.8 |
| 20260506125551 | 49 | 298 | 2.0 | 2.0 | 0.00 | 0.00 | 0.00 | 98 | 1019.7 |
| 20260506125048 | 49 | 264 | 0.0 | 1.0 | 0.00 | 0.00 | 0.00 | 98 | 1020.0 |
| 20260506124546 | 49 | 248 | 1.0 | 2.0 | 0.00 | 0.00 | 0.00 | 98 | 1019.7 |
| 20260506124043 | 48 | 22 | 0.0 | 0.0 | 0.00 | 0.00 | 0.00 | 98 | 1019.7 |
| 20260506123541 | 49 | 4 | 2.0 | 2.0 | 0.00 | 0.00 | 0.00 | 98 | 1019.8 |
| 20260506123039 | 49 | 327 | 2.0 | 2.0 | 0.00 | 0.00 | 0.00 | 98 | 1019.8 |
| 20260506122535 | 49 | 332 | 2.0 | 2.0 | 0.00 | 0.00 | 0.00 | 98 | 1019.5 |
| 20260506122034 | 49 | 312 | 2.0 | 2.0 | 0.00 | 0.00 | 0.00 | 98 | 1019.5 |
| 20260506121531 | 49 | 335 | 2.0 | 2.0 | 0.00 | 0.00 | 0.00 | 98 | 1019.6 |
| 20260506121027 | 49 | 335 | 0.0 | 3.0 | 0.00 | 0.00 | 0.00 | 98 | 1019.4 |
| 20260506120525 | 49 | 311 | 3.0 | 3.0 | 0.00 | 0.00 | 0.00 | 98 | 1019.3 |
| 20260506120022 | 49 | 295 | 2.0 | 4.0 | 0.00 | 0.00 | 0.00 | 98 | 1019.5 |
| 20260506115520 | 49 | 304 | 2.0 | 4.0 | 0.00 | 0.00 | 0.00 | 98 | 1019.4 |
| 20260506115018 | 49 | 343 | 1.0 | 2.0 | 0.00 | 0.00 | 0.00 | 98 | 1019.6 |
| 20260506114515 | 49 | 309 | 1.0 | 2.0 | 0.00 | 0.00 | 0.00 | 98 | 1019.4 |
| 20260506114014 | 49 | 319 | 0.0 | 1.0 | 0.00 | 0.00 | 0.00 | 97 | 1019.6 |
| 20260506113511 | 49 | 328 | 0.0 | 1.0 | 0.00 | 0.00 | 0.00 | 97 | 1019.5 |
| 20260506113008 | 49 | 315 | 0.0 | 0.0 | 0.00 | 0.00 | 0.00 | 97 | 1019.6 |
| 20260506112505 | 50 | 336 | 2.0 | 2.0 | 0.00 | 0.00 | 0.00 | 97 | 1019.3 |
| 20260506112002 | 50 | 320 | 2.0 | 2.0 | 0.00 | 0.00 | 0.00 | 98 | 1019.5 |
| 20260506111500 | 49 | 336 | 2.0 | 3.0 | 0.00 | 0.00 | 0.00 | 97 | 1019.6 |
| 20260506110957 | 49 | 0 | 2.0 | 3.0 | 0.00 | 0.00 | 0.00 | 97 | 1019.4 |
| 20260506110455 | 49 | 25 | 2.0 | 2.0 | 0.00 | 0.00 | 0.00 | 97 | 1019.4 |
| 20260506105951 | 49 | 55 | 0.0 | 0.0 | 0.00 | 0.00 | 0.00 | 97 | 1019.4 |
| 20260506105447 | 50 | 107 | 0.0 | 0.0 | 0.00 | 0.00 | 0.00 | 97 | 1019.2 |
| 20260506104945 | 50 | 63 | 1.0 | 2.0 | 0.00 | 0.00 | 0.00 | 97 | 1019.3 |
| 20260506104443 | 50 | 55 | 0.0 | 2.0 | 0.00 | 0.00 | 0.00 | 97 | 1019.3 |
| 20260506103941 | 50 | 83 | 1.0 | 1.0 | 0.00 | 0.00 | 0.00 | 97 | 1019.2 |
| 20260506103438 | 50 | 1 | 1.0 | 2.0 | 0.00 | 0.00 | 0.00 | 97 | 1019.1 |
| 20260506102934 | 50 | 2 | 1.0 | 1.0 | 0.00 | 0.00 | 0.00 | 96 | 1019.2 |
| 20260506102432 | 50 | 352 | 2.0 | 2.0 | 0.00 | 0.00 | 0.00 | 96 | 1019.0 |
| 20260506101929 | 50 | 29 | 0.0 | 1.0 | 0.00 | 0.00 | 0.00 | 96 | 1018.9 |
| 20260506101426 | 50 | 346 | 2.0 | 2.0 | 0.00 | 0.00 | 0.00 | 96 | 1018.9 |
| 20260506100924 | 51 | 334 | 2.0 | 2.0 | 0.00 | 0.00 | 0.00 | 95 | 1018.9 |
| 20260506100422 | 51 | 298 | 3.0 | 3.0 | 0.00 | 0.00 | 0.00 | 95 | 1018.8 |
| 20260506095919 | 51 | 299 | 1.0 | 2.0 | 0.00 | 0.00 | 0.00 | 95 | 1018.6 |
| 20260506095418 | 51 | 314 | 1.0 | 2.0 | 0.00 | 0.00 | 0.00 | 95 | 1018.8 |
| 20260506094913 | 51 | 280 | 1.0 | 2.0 | 0.00 | 0.00 | 0.00 | 94 | 1018.7 |
| 20260506094412 | 51 | 290 | 1.0 | 2.0 | 0.00 | 0.00 | 0.00 | 94 | 1018.7 |
| 20260506093909 | 52 | 351 | 0.0 | 1.0 | 0.00 | 0.00 | 0.00 | 94 | 1018.6 |
| 20260506093407 | 52 | 304 | 0.0 | 3.0 | 0.00 | 0.00 | 0.00 | 94 | 1018.6 |
| 20260506092905 | 52 | 258 | 3.0 | 4.0 | 0.00 | 0.00 | 0.00 | 95 | 1018.8 |
| 20260506092403 | 52 | 284 | 0.0 | 2.0 | 0.00 | 0.00 | 0.00 | 95 | 1018.7 |
| 20260506091859 | 52 | 293 | 0.0 | 1.0 | 0.00 | 0.00 | 0.00 | 95 | 1018.6 |
| 20260506091357 | 52 | 260 | 1.0 | 1.0 | 0.00 | 0.00 | 0.00 | 95 | 1018.6 |
| 20260506090854 | 52 | 278 | 1.0 | 1.0 | 0.00 | 0.00 | 0.00 | 95 | 1018.7 |
| 20260506090352 | 52 | 313 | 1.0 | 2.0 | 0.00 | 0.00 | 0.00 | 95 | 1018.6 |
| 20260506085848 | 52 | 269 | 0.0 | 2.0 | 0.00 | 0.00 | 0.00 | 95 | 1018.6 |
| 20260506085344 | 52 | 313 | 1.0 | 2.0 | 0.00 | 0.00 | 0.00 | 95 | 1018.7 |
| 20260506084841 | 52 | 336 | 0.0 | 2.0 | 0.00 | 0.00 | 0.00 | 94 | 1018.7 |
| 20260506084338 | 53 | 259 | 2.0 | 4.0 | 0.00 | 0.00 | 0.00 | 94 | 1018.7 |
| 20260506083834 | 53 | 327 | 0.0 | 2.0 | 0.00 | 0.00 | 0.00 | 93 | 1019.0 |
| 20260506083332 | 53 | 19 | 3.0 | 6.0 | 0.00 | 0.00 | 0.00 | 93 | 1018.8 |
| 20260506082829 | 53 | 27 | 4.0 | 6.0 | 0.00 | 0.00 | 0.00 | 94 | 1019.1 |
| 20260506082325 | 53 | 19 | 4.0 | 6.0 | 0.00 | 0.00 | 0.00 | 94 | 1019.2 |
| 20260506081822 | 53 | 28 | 5.0 | 6.0 | 0.00 | 0.00 | 0.00 | 94 | 1019.3 |
| 20260506081320 | 53 | 19 | 3.0 | 4.0 | 0.00 | 0.00 | 0.00 | 94 | 1019.0 |
| 20260506080817 | 53 | 12 | 3.0 | 3.0 | 0.00 | 0.00 | 0.00 | 93 | 1019.1 |
| 20260506080313 | 53 | 5 | 2.0 | 3.0 | 0.00 | 0.00 | 0.00 | 93 | 1019.1 |
| 20260506073258 | 52 | 0 | 2.0 | 3.0 | 0.00 | 0.00 | 0.00 | 96 | 1018.8 |
| 20260506072754 | 52 | 5 | 2.0 | 3.0 | 0.00 | 0.00 | 0.00 | 95 | 1018.8 |
| 20260506072252 | 52 | 8 | 2.0 | 2.0 | 0.00 | 0.00 | 0.00 | 94 | 1018.6 |
| 20260506071749 | 52 | 356 | 0.0 | 1.0 | 0.00 | 0.00 | 0.00 | 94 | 1018.5 |
| 20260506071247 | 52 | 339 | 1.0 | 2.0 | 0.00 | 0.00 | 0.00 | 94 | 1018.4 |
| 20260506070744 | 52 | 0 | 1.0 | 2.0 | 0.00 | 0.00 | 0.00 | 94 | 1018.3 |
| 20260506070241 | 52 | 296 | 0.0 | 1.0 | 0.00 | 0.00 | 0.00 | 93 | 1018.2 |
| 20260506062218 | 53 | 29 | 0.0 | 1.0 | 0.00 | 0.00 | 0.00 | 92 | 1017.9 |
| 20260506061714 | 53 | 315 | 0.0 | 0.0 | 0.00 | 0.00 | 0.00 | 92 | 1017.7 |
| 20260506061212 | 53 | 309 | 0.0 | 0.0 | 0.00 | 0.00 | 0.00 | 92 | 1017.9 |
| 20260506060710 | 53 | 345 | 0.0 | 0.0 | 0.00 | 0.00 | 0.00 | 92 | 1017.6 |
| 20260506060207 | 54 | 348 | 1.0 | 1.0 | 0.00 | 0.00 | 0.00 | 91 | 1017.6 |
| 20260506051139 | 56 | 313 | 2.0 | 2.0 | 0.00 | 0.00 | 0.00 | 87 | 1017.4 |
| 20260506050637 | 56 | 316 | 2.0 | 3.0 | 0.00 | 0.00 | 0.00 | 88 | 1017.5 |
| 20260506050134 | 56 | 7 | 0.0 | 1.0 | 0.00 | 0.00 | 0.00 | 86 | 1017.5 |
| 20260506045126 | 57 | 310 | 0.0 | 1.0 | 0.00 | 0.00 | 0.00 | 83 | 1017.3 |
| 20260506044625 | 57 | 310 | 2.0 | 3.0 | 0.00 | 0.00 | 0.00 | 82 | 1017.4 |
| 20260506044122 | 58 | 313 | 3.0 | 3.0 | 0.00 | 0.00 | 0.00 | 82 | 1017.1 |
| 20260506043619 | 58 | 317 | 2.0 | 3.0 | 0.00 | 0.00 | 0.00 | 82 | 1017.2 |
| 20260506043117 | 58 | 315 | 2.0 | 4.0 | 0.00 | 0.00 | 0.00 | 83 | 1017.0 |
| 20260506042616 | 58 | 333 | 2.0 | 3.0 | 0.00 | 0.00 | 0.00 | 83 | 1017.1 |
| 20260506042113 | 58 | 312 | 2.0 | 2.0 | 0.00 | 0.00 | 0.00 | 84 | 1017.0 |
| 20260506041612 | 57 | 303 | 2.0 | 2.0 | 0.00 | 0.00 | 0.00 | 84 | 1016.8 |
| 20260506041108 | 57 | 320 | 2.0 | 2.0 | 0.00 | 0.00 | 0.00 | 85 | 1016.9 |
| 20260506040606 | 58 | 336 | 3.0 | 3.0 | 0.00 | 0.00 | 0.00 | 84 | 1016.9 |
| 20260506035559 | 59 | 320 | 3.0 | 4.0 | 0.00 | 0.00 | 0.00 | 81 | 1016.7 |
| 20260506035056 | 59 | 323 | 4.0 | 4.0 | 0.00 | 0.00 | 0.00 | 80 | 1016.5 |
| 20260506034553 | 59 | 325 | 3.0 | 4.0 | 0.00 | 0.00 | 0.00 | 79 | 1016.3 |
| 20260506034050 | 59 | 330 | 2.0 | 4.0 | 0.00 | 0.00 | 0.00 | 79 | 1016.3 |
| 20260506033547 | 59 | 320 | 3.0 | 3.0 | 0.00 | 0.00 | 0.00 | 79 | 1016.4 |
| 20260506033044 | 60 | 291 | 4.0 | 4.0 | 0.00 | 0.00 | 0.00 | 79 | 1016.3 |
| 20260506032542 | 59 | 310 | 3.0 | 3.0 | 0.00 | 0.00 | 0.00 | 80 | 1016.1 |
| 20260506032038 | 59 | 294 | 3.0 | 4.0 | 0.00 | 0.00 | 0.00 | 80 | 1016.2 |
| 20260506031536 | 59 | 315 | 3.0 | 3.0 | 0.00 | 0.00 | 0.00 | 81 | 1015.8 |
| 20260506031033 | 59 | 339 | 3.0 | 4.0 | 0.00 | 0.00 | 0.00 | 80 | 1015.8 |
| 20260506030531 | 60 | 325 | 4.0 | 4.0 | 0.00 | 0.00 | 0.00 | 79 | 1015.9 |
| 20260506030028 | 60 | 313 | 4.0 | 4.0 | 0.00 | 0.00 | 0.00 | 77 | 1015.9 |
| 20260506025525 | 61 | 304 | 3.0 | 4.0 | 0.00 | 0.00 | 0.00 | 76 | 1015.9 |
| 20260506025020 | 61 | 308 | 3.0 | 4.0 | 0.00 | 0.00 | 0.00 | 76 | 1015.7 |
| 20260506024517 | 61 | 303 | 4.0 | 4.0 | 0.00 | 0.00 | 0.00 | 76 | 1015.6 |
| 20260506024014 | 61 | 321 | 3.0 | 4.0 | 0.00 | 0.00 | 0.00 | 76 | 1015.6 |
| 20260506023510 | 61 | 319 | 3.0 | 4.0 | 0.00 | 0.00 | 0.00 | 77 | 1015.7 |
| 20260506023008 | 62 | 331 | 4.0 | 4.0 | 0.00 | 0.00 | 0.00 | 75 | 1015.5 |
| 20260506022505 | 63 | 340 | 3.0 | 4.0 | 0.00 | 0.00 | 0.00 | 74 | 1015.6 |
| 20260506022003 | 64 | 334 | 3.0 | 4.0 | 0.00 | 0.00 | 0.00 | 71 | 1015.4 |
| 20260506021500 | 64 | 329 | 3.0 | 5.0 | 0.00 | 0.00 | 0.00 | 70 | 1015.5 |
| 20260506020957 | 64 | 330 | 4.0 | 6.0 | 0.00 | 0.00 | 0.00 | 69 | 1015.4 |
| 20260506020454 | 64 | 341 | 5.0 | 7.0 | 0.00 | 0.00 | 0.00 | 67 | 1015.4 |
| 20260506015951 | 64 | 326 | 6.0 | 8.0 | 0.00 | 0.00 | 0.00 | 67 | 1015.5 |
| 20260506015449 | 65 | 322 | 6.0 | 8.0 | 0.00 | 0.00 | 0.00 | 66 | 1015.5 |
| 20260506014946 | 65 | 318 | 6.0 | 6.0 | 0.00 | 0.00 | 0.00 | 67 | 1015.4 |
| 20260506014442 | 65 | 290 | 4.0 | 7.0 | 0.00 | 0.00 | 0.00 | 67 | 1015.6 |
| 20260506013939 | 65 | 344 | 6.0 | 10.0 | 0.00 | 0.00 | 0.00 | 65 | 1015.5 |
| 20260506013437 | 66 | 320 | 4.0 | 6.0 | 0.00 | 0.00 | 0.00 | 67 | 1015.7 |
| 20260506012933 | 66 | 342 | 5.0 | 6.0 | 0.00 | 0.00 | 0.00 | 65 | 1015.5 |
| 20260506012430 | 66 | 4 | 3.0 | 8.0 | 0.00 | 0.00 | 0.00 | 66 | 1015.5 |
| 20260506011927 | 66 | 346 | 4.0 | 8.0 | 0.00 | 0.00 | 0.00 | 65 | 1015.6 |
| 20260506011424 | 66 | 3 | 5.0 | 7.0 | 0.00 | 0.00 | 0.00 | 66 | 1015.6 |
| 20260506010921 | 66 | 304 | 4.0 | 7.0 | 0.00 | 0.00 | 0.00 | 65 | 1015.5 |
| 20260506010420 | 66 | 315 | 4.0 | 6.0 | 0.00 | 0.00 | 0.00 | 65 | 1015.7 |
| 20260506005915 | 66 | 307 | 3.0 | 6.0 | 0.00 | 0.00 | 0.00 | 65 | 1015.4 |
| 20260506005414 | 64 | 317 | 3.0 | 4.0 | 0.00 | 0.00 | 0.00 | 69 | 1015.7 |
| 20260506004908 | 64 | 328 | 3.0 | 5.0 | 0.00 | 0.00 | 0.00 | 71 | 1015.7 |
| 20260506004407 | 64 | 311 | 4.0 | 5.0 | 0.00 | 0.00 | 0.00 | 70 | 1015.6 |
| 20260506003902 | 64 | 0 | 3.0 | 6.0 | 0.00 | 0.00 | 0.00 | 71 | 1015.4 |
| 20260506003359 | 64 | 324 | 5.0 | 6.0 | 0.00 | 0.00 | 0.00 | 69 | 1015.5 |
| 20260506002855 | 64 | 336 | 4.0 | 6.0 | 0.00 | 0.00 | 0.00 | 69 | 1015.6 |
| 20260506002351 | 64 | 331 | 4.0 | 6.0 | 0.00 | 0.00 | 0.00 | 68 | 1015.5 |
| 20260506001848 | 64 | 332 | 4.0 | 7.0 | 0.00 | 0.00 | 0.00 | 69 | 1015.7 |
| 20260506001344 | 64 | 307 | 7.0 | 7.0 | 0.00 | 0.00 | 0.00 | 70 | 1015.5 |
| 20260506000841 | 64 | 325 | 3.0 | 6.0 | 0.00 | 0.00 | 0.00 | 70 | 1015.5 |
| 20260506000340 | 64 | 307 | 6.0 | 6.0 | 0.00 | 0.00 | 0.00 | 69 | 1015.5 |
| 20260505235836 | 64 | 296 | 7.0 | 9.0 | 0.00 | 0.00 | 0.00 | 68 | 1015.4 |
| 20260505235333 | 64 | 303 | 6.0 | 9.0 | 0.00 | 0.00 | 0.00 | 68 | 1015.5 |
| 20260505234830 | 64 | 307 | 3.0 | 8.0 | 0.00 | 0.00 | 0.00 | 69 | 1015.5 |
| 20260505234328 | 64 | 306 | 4.0 | 8.0 | 0.00 | 0.00 | 0.00 | 67 | 1015.4 |
| 20260505233825 | 64 | 311 | 8.0 | 8.0 | 0.00 | 0.00 | 0.00 | 68 | 1015.4 |
| 20260505233323 | 64 | 310 | 5.0 | 10.0 | 0.00 | 0.00 | 0.00 | 68 | 1015.5 |
| 20260505232820 | 64 | 305 | 3.0 | 4.0 | 0.00 | 0.00 | 0.00 | 67 | 1015.4 |
| 20260505232317 | 64 | 302 | 5.0 | 7.0 | 0.00 | 0.00 | 0.00 | 65 | 1015.6 |
| 20260505231814 | 64 | 339 | 3.0 | 7.0 | 0.00 | 0.00 | 0.00 | 67 | 1015.5 |
| 20260505231312 | 64 | 346 | 4.0 | 6.0 | 0.00 | 0.00 | 0.00 | 69 | 1015.5 |
| 20260505230810 | 64 | 349 | 5.0 | 6.0 | 0.00 | 0.00 | 0.00 | 68 | 1015.4 |
| 20260505230306 | 64 | 348 | 4.0 | 7.0 | 0.00 | 0.00 | 0.00 | 68 | 1015.6 |
| 20260505225803 | 64 | 301 | 5.0 | 6.0 | 0.00 | 0.00 | 0.00 | 67 | 1015.7 |
| 20260505225301 | 64 | 311 | 2.0 | 6.0 | 0.00 | 0.00 | 0.00 | 66 | 1015.5 |
| 20260505224800 | 64 | 308 | 5.0 | 8.0 | 0.00 | 0.00 | 0.00 | 64 | 1015.6 |
| 20260505224259 | 65 | 343 | 6.0 | 8.0 | 0.00 | 0.00 | 0.00 | 64 | 1015.6 |
| 20260505223756 | 65 | 341 | 7.0 | 11.0 | 0.00 | 0.00 | 0.00 | 65 | 1015.5 |
| 20260505223252 | 65 | 305 | 6.0 | 7.0 | 0.00 | 0.00 | 0.00 | 65 | 1015.9 |
| 20260505222748 | 64 | 318 | 8.0 | 11.0 | 0.00 | 0.00 | 0.00 | 65 | 1015.5 |
| 20260505222245 | 64 | 325 | 7.0 | 11.0 | 0.00 | 0.00 | 0.00 | 66 | 1015.8 |
| 20260505221742 | 64 | 339 | 7.0 | 11.0 | 0.00 | 0.00 | 0.00 | 65 | 1015.6 |
| 20260505221239 | 64 | 342 | 5.0 | 6.0 | 0.00 | 0.00 | 0.00 | 67 | 1015.7 |
| 20260505220735 | 64 | 335 | 6.0 | 9.0 | 0.00 | 0.00 | 0.00 | 69 | 1015.6 |
| 20260505220233 | 63 | 335 | 5.0 | 7.0 | 0.00 | 0.00 | 0.00 | 69 | 1015.8 |
| 20260505215731 | 64 | 323 | 9.0 | 10.0 | 0.00 | 0.00 | 0.00 | 69 | 1015.8 |
| 20260505215228 | 63 | 309 | 8.0 | 8.0 | 0.00 | 0.00 | 0.00 | 67 | 1015.7 |
| 20260505214726 | 63 | 352 | 6.0 | 9.0 | 0.00 | 0.00 | 0.00 | 70 | 1015.8 |
| 20260505214223 | 62 | 347 | 4.0 | 10.0 | 0.00 | 0.00 | 0.00 | 72 | 1015.9 |
| 20260505213721 | 63 | 325 | 8.0 | 10.0 | 0.00 | 0.00 | 0.00 | 70 | 1015.9 |
| 20260505213218 | 63 | 335 | 5.0 | 8.0 | 0.00 | 0.00 | 0.00 | 71 | 1015.9 |
| 20260505212714 | 63 | 340 | 5.0 | 6.0 | 0.00 | 0.00 | 0.00 | 72 | 1016.0 |
| 20260505212211 | 62 | 350 | 5.0 | 6.0 | 0.00 | 0.00 | 0.00 | 70 | 1016.0 |
| 20260505211708 | 63 | 346 | 8.0 | 10.0 | 0.00 | 0.00 | 0.00 | 70 | 1016.0 |
| 20260505211205 | 63 | 334 | 4.0 | 7.0 | 0.00 | 0.00 | 0.00 | 70 | 1015.9 |
| 20260505210701 | 63 | 326 | 5.0 | 8.0 | 0.00 | 0.00 | 0.00 | 71 | 1015.8 |
| 20260505210159 | 63 | 330 | 6.0 | 7.0 | 0.00 | 0.00 | 0.00 | 68 | 1015.8 |
| 20260505205656 | 63 | 329 | 6.0 | 9.0 | 0.00 | 0.00 | 0.00 | 70 | 1015.8 |
| 20260505205154 | 62 | 332 | 3.0 | 7.0 | 0.00 | 0.00 | 0.00 | 68 | 1015.9 |
| 20260505204650 | 63 | 358 | 3.0 | 5.0 | 0.00 | 0.00 | 0.00 | 70 | 1016.0 |
| 20260505204148 | 63 | 294 | 3.0 | 6.0 | 0.00 | 0.00 | 0.00 | 67 | 1016.0 |
| 20260505203645 | 62 | 339 | 5.0 | 9.0 | 0.00 | 0.00 | 0.00 | 70 | 1016.1 |
| 20260505203142 | 63 | 327 | 6.0 | 7.0 | 0.00 | 0.00 | 0.00 | 69 | 1016.1 |
| 20260505202638 | 63 | 316 | 6.0 | 7.0 | 0.00 | 0.00 | 0.00 | 66 | 1016.2 |
| 20260505202134 | 63 | 2 | 7.0 | 8.0 | 0.00 | 0.00 | 0.00 | 67 | 1016.0 |
| 20260505201630 | 63 | 341 | 5.0 | 11.0 | 0.00 | 0.00 | 0.00 | 68 | 1016.0 |
| 20260505201128 | 63 | 306 | 4.0 | 9.0 | 0.00 | 0.00 | 0.00 | 67 | 1016.0 |
| 20260505200626 | 63 | 334 | 7.0 | 9.0 | 0.00 | 0.00 | 0.00 | 65 | 1016.1 |
| 20260505200123 | 63 | 301 | 5.0 | 9.0 | 0.00 | 0.00 | 0.00 | 66 | 1016.2 |
| 20260505195619 | 63 | 290 | 6.0 | 9.0 | 0.00 | 0.00 | 0.00 | 67 | 1016.0 |
| 20260505195117 | 63 | 330 | 5.0 | 5.0 | 0.00 | 0.00 | 0.00 | 66 | 1016.2 |
| 20260505194614 | 63 | 301 | 5.0 | 11.0 | 0.00 | 0.00 | 0.00 | 66 | 1016.2 |
| 20260505194109 | 62 | 0 | 3.0 | 4.0 | 0.00 | 0.00 | 0.00 | 66 | 1016.2 |
| 20260505193607 | 63 | 304 | 9.0 | 10.0 | 0.00 | 0.00 | 0.00 | 65 | 1016.4 |
| 20260505193103 | 62 | 295 | 4.0 | 6.0 | 0.00 | 0.00 | 0.00 | 65 | 1016.3 |
| 20260505192603 | 62 | 359 | 5.0 | 6.0 | 0.00 | 0.00 | 0.00 | 66 | 1016.3 |
| 20260505192059 | 62 | 336 | 4.0 | 5.0 | 0.00 | 0.00 | 0.00 | 66 | 1016.3 |
| 20260505191557 | 62 | 311 | 4.0 | 5.0 | 0.00 | 0.00 | 0.00 | 68 | 1016.2 |
| 20260505191055 | 61 | 304 | 6.0 | 9.0 | 0.00 | 0.00 | 0.00 | 66 | 1016.3 |
| 20260505190550 | 62 | 335 | 4.0 | 10.0 | 0.00 | 0.00 | 0.00 | 64 | 1016.3 |
| 20260505190046 | 61 | 324 | 5.0 | 8.0 | 0.00 | 0.00 | 0.00 | 67 | 1016.0 |
| 20260505185543 | 61 | 300 | 4.0 | 6.0 | 0.00 | 0.00 | 0.00 | 68 | 1016.3 |
| 20260505185039 | 61 | 353 | 2.0 | 4.0 | 0.00 | 0.00 | 0.00 | 70 | 1016.3 |
| 20260505184536 | 60 | 321 | 5.0 | 7.0 | 0.00 | 0.00 | 0.00 | 67 | 1016.4 |
| 20260505184033 | 61 | 304 | 5.0 | 11.0 | 0.00 | 0.00 | 0.00 | 68 | 1016.2 |
| 20260505183529 | 61 | 308 | 5.0 | 10.0 | 0.00 | 0.00 | 0.00 | 67 | 1016.2 |
| 20260505183027 | 61 | 326 | 9.0 | 9.0 | 0.00 | 0.00 | 0.00 | 68 | 1016.3 |
| 20260505182523 | 61 | 281 | 2.0 | 7.0 | 0.00 | 0.00 | 0.00 | 68 | 1016.0 |
| 20260505182020 | 61 | 319 | 5.0 | 5.0 | 0.00 | 0.00 | 0.00 | 69 | 1016.2 |
| 20260505181516 | 60 | 348 | 4.0 | 8.0 | 0.00 | 0.00 | 0.00 | 71 | 1016.2 |
| 20260505181014 | 59 | 303 | 8.0 | 11.0 | 0.00 | 0.00 | 0.00 | 71 | 1016.1 |
| 20260505180509 | 60 | 8 | 7.0 | 8.0 | 0.00 | 0.00 | 0.00 | 71 | 1016.0 |
| 20260505180008 | 60 | 321 | 3.0 | 6.0 | 0.00 | 0.00 | 0.00 | 73 | 1016.1 |
| 20260505175502 | 60 | 312 | 6.0 | 9.0 | 0.00 | 0.00 | 0.00 | 73 | 1016.1 |
| 20260505175000 | 60 | 335 | 6.0 | 7.0 | 0.00 | 0.00 | 0.00 | 74 | 1015.8 |
| 20260505174457 | 59 | 311 | 5.0 | 6.0 | 0.00 | 0.00 | 0.00 | 76 | 1016.0 |
| 20260505173953 | 58 | 339 | 6.0 | 7.0 | 0.00 | 0.00 | 0.00 | 75 | 1015.9 |
| 20260505173449 | 58 | 304 | 4.0 | 6.0 | 0.00 | 0.00 | 0.00 | 77 | 1016.1 |
| 20260505172946 | 58 | 294 | 4.0 | 5.0 | 0.00 | 0.00 | 0.00 | 77 | 1015.8 |
| 20260505172445 | 58 | 303 | 3.0 | 3.0 | 0.00 | 0.00 | 0.00 | 79 | 1015.9 |
| 20260505171944 | 58 | 337 | 3.0 | 4.0 | 0.00 | 0.00 | 0.00 | 79 | 1015.9 |
| 20260505171441 | 57 | 338 | 4.0 | 4.0 | 0.00 | 0.00 | 0.00 | 80 | 1016.0 |
| 20260505170937 | 57 | 338 | 2.0 | 4.0 | 0.00 | 0.00 | 0.00 | 81 | 1015.8 |
| 20260505170434 | 57 | 347 | 3.0 | 4.0 | 0.00 | 0.00 | 0.00 | 81 | 1015.9 |
| 20260505165930 | 57 | 351 | 2.0 | 3.0 | 0.00 | 0.00 | 0.00 | 82 | 1015.9 |
| 20260505165426 | 57 | 345 | 2.0 | 3.0 | 0.00 | 0.00 | 0.00 | 82 | 1015.6 |
| 20260505164921 | 57 | 354 | 3.0 | 5.0 | 0.00 | 0.00 | 0.00 | 81 | 1015.9 |
| 20260505164418 | 57 | 321 | 4.0 | 5.0 | 0.00 | 0.00 | 0.00 | 80 | 1015.9 |
| 20260505163916 | 57 | 335 | 5.0 | 5.0 | 0.00 | 0.00 | 0.00 | 81 | 1015.9 |
| 20260505163415 | 57 | 334 | 2.0 | 5.0 | 0.00 | 0.00 | 0.00 | 81 | 1016.1 |
| 20260505162914 | 57 | 350 | 5.0 | 8.0 | 0.00 | 0.00 | 0.00 | 78 | 1016.0 |
| 20260505162409 | 58 | 353 | 4.0 | 7.0 | 0.00 | 0.00 | 0.00 | 78 | 1015.8 |
| 20260505161906 | 58 | 321 | 5.0 | 7.0 | 0.00 | 0.00 | 0.00 | 77 | 1015.7 |
| 20260505161403 | 58 | 311 | 5.0 | 8.0 | 0.00 | 0.00 | 0.00 | 76 | 1015.9 |
| 20260505160900 | 58 | 358 | 5.0 | 9.0 | 0.00 | 0.00 | 0.00 | 75 | 1015.6 |
| 20260505160358 | 59 | 341 | 5.0 | 6.0 | 0.00 | 0.00 | 0.00 | 76 | 1016.0 |